Content
SEND FEEDBACK

Daily
Averages
Monthly
Summary
Philippines

OLONGAPO, PHILIPPINES


Home > Asia > Philippines
Elevation: 55 feet     Latitude: 14 48N     Longitude: 120 16E

WEATHER
 
SELECT A DAY
Number of Records: 135,076;   Date Range: 7/31/96 - 8/30/14
 
SHARE

PRINT THIS DATA

[ ← Previous Day ]
WEATHER ALMANAC - SEPTEMBER 18, 2013
[ Next Day → ]
[ °C ]   °F
Weather ElementAverageHighLow
Temperature79.2 °F86 °F (12:00 pm)75 °F (11:00 pm)
Dewpoint75.9 °F78.8 °F (11:00 am)71.6 °F (10:00 pm)
Humidity89.1 %100 % (5:00 pm)69 % (2:00 pm)
Barometer29.71 in29.77 in (9:00 pm)29.65 in (2:00 pm)
Wind Speed5.3 mph20.7 mph (5:00 pm)
Weather ElementAverage
Visibility6.1 mi
Wind DirectionSSW (186.3 °)

Weather ElementTotal
Precipitation---
Cooling Degree Days15.5 (Base 65)
Growing Degree Days30.5 (Base 50)
Averaged from 27 records on September 18, 2013
WEATHER CONDITIONS BREAKOUT
WIND DIRECTION BREAKOUT
WEATHER BY HOUR - SEPTEMBER 18, 2013
[ °C ]   °F
Local TimeTemperatureDewpointHumidityBarometerVisibilityWind DirectionWind SpeedGust SpeedPrecipitationEventsConditions
2:00 AM77.0 °F75.0 °F92 %29.70 in6.0 miSSE (150°)2.2 mphRainLight Rain
2:00 AM77.0 °F75.2 °F94 %29.68 in6.2 miSSE (150°)1.2 mphRainLight Rain
5:00 AM77.0 °F75.0 °F92 %29.69 in7.0 miENE (60°)2.2 mphRainLight Rain
5:00 AM77.0 °F75.2 °F94 %29.68 in6.2 miENE (60°)2.3 mphMostly Cloudy
6:00 AM77.0 °F75.2 °F94 %29.71 in6.2 miEast (80°)1.2 mphMostly Cloudy
7:00 AM77.0 °F75.2 °F94 %29.71 in6.2 miCalmMostly Cloudy
8:00 AM80.6 °F77.0 °F89 %29.74 in6.2 miNNW (340°)2.3 mphRainLight Rain Showers
8:00 AM80.0 °F76.0 °F86 %29.74 in9.0 miNNW (340°)2.2 mphRainLight Rain Showers
9:00 AM80.6 °F77.0 °F89 %29.74 in6.2 miWSW (240°)4.6 mphRainLight Rain Showers
10:00 AM84.2 °F77.0 °F79 %29.74 in6.2 miWest (260°)2.3 mphRainLight Rain Showers
11:00 AM82.4 °F78.8 °F89 %29.71 in6.2 miSSW (210°)3.5 mphMostly Cloudy
12:00 PM86.0 °F78.8 °F79 %29.71 in6.2 miSouth (190°)10.4 mphMostly Cloudy
1:00 PM84.2 °F78.8 °F84 %29.68 in6.2 miWSW (240°)13.8 mphRainLight Rain Showers
2:00 PM86.0 °F77.0 °F74 %29.65 in6.2 miSSW (210°)8.1 mphMostly Cloudy
2:00 PM86.0 °F77.0 °F69 %29.67 in9.0 miSSW (210°)8.9 mphRainLight Rain Showers
3:00 PM82.4 °F78.8 °F89 %29.65 in6.2 miSW (230°)5.8 mphMostly Cloudy
4:00 PM80.6 °F78.8 °F94 %29.65 in6.2 miWSW (240°)5.8 mphRainLight Rain Showers
5:00 PM77.0 °F77.0 °F99 %29.68 in2.0 miSW (220°)20.1 mphRainHeavy Rain Showers
5:00 PM77.0 °F77.0 °F100 %29.68 in2.5 miSW (220°)20.7 mphRainRain Showers
6:00 PM77.0 °F75.2 °F94 %29.68 in5.0 miSSW (210°)6.9 mphRainLight Rain Showers
7:00 PM77.0 °F75.2 °F94 %29.71 in6.2 miENE (70°)5.8 mphRainLight Rain Showers
8:00 PM77.0 °F73.0 °F83 %29.73 in6.0 miSSE (150°)2.2 mphRainLight Rain
8:00 PM77.0 °F73.4 °F89 %29.71 in6.2 miSSE (150°)1.2 mphRainLight Rain
9:00 PM75.2 °F73.4 °F94 %29.77 in6.2 miESE (120°)1.2 mphRainLight Rain
10:00 PM75.2 °F71.6 °F89 %29.77 in6.2 miCalmOvercast
11:00 PM75.0 °F73.0 °F90 %29.77 in6.0 miNNW (340°)4.5 mphRainLight Rain
11:00 PM75.2 °F73.4 °F94 %29.77 in6.2 miNNW (340°)4.6 mphRainLight Rain
Hourly data recorded from RPLB, located miles away from Olongapo, Philippines







STORIES FROM OUR PARTNERS